DW6455 Weather Reports


Display with metric or nautical units.
time (UTC)temp
F
wind
direction
speed
MPH
gust
MPH
rain 1hr
in
rain 24hr
in
rain mn
in
humidity
%
barometer
mb
20260504050530 42 0.0 0.0 0.00 0.00 0.00 73 1004.4
20260504045529 41 0.0 0.0 0.00 0.00 0.00 76 1004.5
20260504044529 40 0.0 0.0 0.00 0.00 0.00 77 1004.6
20260504043529 39 0.0 0.0 0.00 0.00 0.00 78 1004.8
20260504042529 38 0.0 0.0 0.00 0.00 0.00 78 1004.9
20260504041529 37 0.0 0.0 0.00 0.00 0.00 78 1005.0
20260504040530 36 0.0 0.0 0.00 0.00 0.00 76 1005.1
20260504035530 35 0.0 0.0 0.00 0.00 0.00 73 1004.9
20260504034550 34 0.0 0.0 0.00 0.00 0.00 69 1005.0
20260504033550 33 0.0 0.0 0.00 0.00 0.00 65 1005.1
20260504032530 32 0.0 0.0 0.00 0.00 0.00 60 1005.2
20260504031530 31 0.0 0.0 0.00 0.00 0.00 65 1005.2
20260504030530 31 0.0 0.0 0.00 0.00 0.00 69 1005.2
20260504025530 30 0.0 0.0 0.00 0.00 0.00 70 1005.4
20260504024530 30 0.0 0.0 0.00 0.00 0.00 71 1005.6
20260504023610 30 315 2.0 3.0 0.00 0.00 0.00 75 1005.6
20260504022549 30 0.0 0.0 0.00 0.00 0.00 76 1005.6
20260504021530 30 0.0 0.0 0.00 0.00 0.00 77 1005.7
20260504020550 30 0.0 0.0 0.00 0.00 0.00 78 1005.7
20260504015530 30 0.0 0.0 0.00 0.00 0.00 79 1005.7
20260504014550 31 0.0 0.0 0.00 0.00 0.00 79 1005.8
20260504013550 31 0.0 0.0 0.00 0.00 0.00 79 1005.8
20260504012529 31 0.0 0.0 0.00 0.00 0.00 80 1005.8
20260504011530 32 0.0 0.0 0.00 0.00 0.00 80 1005.9
20260504010529 32 0.0 0.0 0.00 0.00 0.00 80 1005.9
20260504005529 32 0.0 0.0 0.00 0.00 0.00 80 1006.0
20260504004530 33 0.0 0.0 0.00 0.00 0.00 80 1006.1
20260504003529 33 0.0 0.0 0.00 0.00 0.00 79 1006.1
20260504002529 33 315 1.0 3.0 0.00 0.00 0.00 79 1006.1
20260504001530 34 0.0 0.0 0.00 0.00 0.00 78 1006.2
20260504000529 34 0.0 0.0 0.00 0.00 0.00 77 1006.2
20260503235530 35 0.0 0.0 0.00 0.00 0.00 76 1006.3
20260503234530 36 0.0 0.0 0.00 0.00 0.00 74 1006.3
20260503233530 37 0.0 0.0 0.00 0.00 0.00 73 1006.2
20260503232550 37 0.0 0.0 0.00 0.00 0.00 72 1006.4
20260503231530 37 0.0 0.0 0.00 0.00 0.00 70 1006.3
20260503230530 38 0.0 3.0 0.00 0.00 0.00 69 1006.4
20260503225529 38 0.0 1.0 0.00 0.00 0.00 67 1006.5
20260503224529 38 0.0 2.0 0.00 0.00 0.00 66 1006.5
20260503223530 39 0.0 2.0 0.00 0.00 0.00 65 1006.6
20260503222530 40 0.0 0.0 0.00 0.00 0.00 64 1006.5
20260503221529 41 0.0 1.0 0.00 0.00 0.00 62 1006.6
20260503220529 42 0.0 3.0 0.00 0.00 0.00 61 1006.8
20260503215530 43 315 1.0 6.0 0.00 0.00 0.00 58 1006.8
20260503214549 43 315 2.0 5.0 0.00 0.00 0.00 57 1006.8
20260503213529 44 315 2.0 4.0 0.00 0.00 0.00 55 1006.8
20260503212550 45 293 1.0 3.0 0.00 0.00 0.00 53 1006.9
20260503211530 46 293 1.0 7.0 0.00 0.00 0.00 51 1007.0
20260503210530 46 315 2.0 4.0 0.00 0.00 0.00 51 1007.0
20260503205551 46 315 2.0 6.0 0.00 0.00 0.00 51 1007.0
20260503204530 47 315 3.0 6.0 0.00 0.00 0.00 51 1007.0
20260503203529 47 315 1.0 6.0 0.00 0.00 0.00 51 1007.0
20260503202530 47 315 1.0 4.0 0.00 0.00 0.00 51 1007.0
20260503201530 46 315 2.0 5.0 0.00 0.00 0.00 52 1007.0
20260503200531 46 293 2.0 7.0 0.00 0.00 0.00 53 1007.0
20260503195530 46 293 2.0 5.0 0.00 0.00 0.00 56 1007.0
20260503194529 46 0.0 2.0 0.00 0.00 0.00 55 1007.0
20260503193530 47 293 2.0 3.0 0.00 0.00 0.00 53 1006.9
20260503192530 47 0.0 2.0 0.00 0.00 0.00 55 1006.9
20260503191529 48 0.0 3.0 0.00 0.00 0.00 51 1006.9
20260503190531 49 0.0 2.0 0.00 0.00 0.00 51 1006.8
20260503185529 49 0.0 0.0 0.00 0.00 0.00 51 1006.8
20260503184530 50 0.0 0.0 0.00 0.00 0.00 50 1006.8
20260503183533 50 0.0 1.0 0.00 0.00 0.00 48 1006.7
20260503182530 51 293 1.0 3.0 0.00 0.00 0.00 47 1006.7
20260503181531 51 293 1.0 3.0 0.00 0.00 0.00 46 1006.6
20260503180529 52 293 1.0 4.0 0.00 0.00 0.00 46 1006.6
20260503175530 53 0.0 2.0 0.00 0.00 0.00 45 1006.5
20260503174531 53 0.0 2.0 0.00 0.00 0.00 44 1006.4
20260503173530 54 293 1.0 4.0 0.00 0.00 0.00 43 1006.4
20260503172530 54 293 1.0 2.0 0.00 0.00 0.00 43 1006.3
20260503171530 54 293 2.0 8.0 0.00 0.00 0.00 41 1006.3
20260503170531 55 293 2.0 4.0 0.00 0.00 0.00 40 1006.3
20260503150529 57 270 3.0 7.0 0.00 0.00 0.00 41 1006.7
20260503130530 56 248 2.0 9.0 0.00 0.00 0.00 51 1007.2
20260503110530 55 293 6.0 15.0 0.00 0.00 0.00 61 1007.4
20260503081530 53 315 3.0 9.0 0.00 0.00 0.00 65 1006.7
20260503080530 53 0 2.0 9.0 0.00 0.00 0.00 66 1006.5
20260503072530 51 315 3.0 6.0 0.00 0.00 0.00 69 1006.3
20260503071530 51 315 3.0 6.0 0.00 0.00 0.00 69 1006.3